Location: Lawrence Hall of Science
(37.8785°N, 122.2415°W)
Time: 17:35:32
(UTC-07:00)

Cosmos 1461 - Visible Passes

Search period start: 27 April 2015 00:00
Search period end: 07 May 2015 00:00
Orbit: 516 x 672 km, 65.0° (Epoch: 27 April)

Date Brightness Start Highest point End Pass type
(mag) Time Alt. Az. Time Alt. Az. Time Alt. Az.
27 Apr 6.2 01:38:14 10° N 01:38:14 10° N 01:38:20 10° N visible
29 Apr 6.1 00:18:40 11° NNE 00:18:40 11° NNE 00:18:46 10° NNE visible
30 Apr 6.0 00:27:01 13° N 00:27:01 13° N 00:27:41 10° N visible
01 May 6.0 00:35:13 13° NNW 00:35:13 13° NNW 00:36:15 10° N visible
01 May 5.4 23:06:40 16° NNE 23:06:40 16° NNE 23:07:33 10° NNE visible
02 May 4.8 23:14:21 27° N 23:14:21 27° N 23:16:41 10° NNE visible
03 May 4.6 21:44:59 19° ENE 21:44:59 19° ENE 21:46:29 10° NE visible
03 May 5.1 23:21:26 22° WNW 23:22:10 23° NW 23:25:34 10° N visible
04 May 2.8 21:50:46 41° S 21:51:56 59° ESE 21:56:05 10° NE visible
04 May 5.9 23:29:24 10° WNW 23:31:46 14° NW 23:34:03 10° N visible
05 May 3.0 21:57:10 10° SW 22:01:11 71° WNW 22:05:25 10° NNE visible
06 May 4.3 20:28:56 10° SSE 20:31:30 17° ESE 20:34:17 10° ENE visible
06 May 4.3 22:06:44 10° WSW 22:10:32 38° NW 22:14:31 10° NNE visible
